Location: B�rgermoos
(47.6500°N, 9.0667°E)
Time: 09:16:15
(UTC+00:00)

A-11 Canister half - Pass Details

Date: 10 August 2021
Orbit: 1526 x 1683 km, 47.3° (Epoch: 20 September)

Event Time Altitude Azimuth Distance (km) Brightness Sun altitude
Rises 11:01:13 0° 267° (W) 4,934 11.6 57.3°
Reaches altitude 10° 11:04:23 10° 268° (W) 3,947 11.2 57.4°
Maximum altitude 11:14:37 89° 180° (S) 1,676 10.5 57.6°
Drops below altitude 10° 11:24:39 10° 92° (E) 3,880 11.3 57.8°
Sets 11:27:44 0° 93° (E) 4,847 11.6 57.8°
